Voltar ao catálogo

FENGYUN 1C DEB

AtivoPO
NORAD 30113·DEBRIS·🇨🇳 China

Lançado May 10, 1999 de Taiyuan Satellite Launch Center

Loading…

Próximas Passagens (próximas 24 horas)

TLE

AtualizadoSource: Space-Track

Época: Sep 14, 2026, 10:50 UTC

1 30113U 99025RS  26257.45142894  .00003359  00000-0  90400-3 0  9998
2 30113  99.0222 132.9852 0036332 261.8965 274.4705 14.48339360 18940

Acompanhe FENGYUN 1C DEB em tempo real com AllMySat

Download on the App Store